period_start,C,m1,H,J0,J1,J2,J3,J4,J5,JA,JB,JC,JD,JJ,JK,JN,#
2015-04-01 00:02:21,0.06,3.95,0.00,24.73,28.24,31.22,4.75,27.13,1014.70,2025.98,2113.97,2363.98,2546.01,350.11,345.01,33.60,0000 0000 0000 0000 000000
2015-04-01 00:07:23,0.14,3.95,0.00,24.63,28.24,31.20,4.73,27.17,1014.69,2025.97,2113.10,2363.33,2545.39,350.04,345.38,33.63,0000 0000 0000 0000 000000
2015-04-01 00:12:24,0.06,3.95,0.00,24.54,28.23,31.17,4.74,27.23,1014.71,2025.98,2112.48,2363.00,2545.00,350.33,345.57,33.66,0000 0000 0000 0000 000000
2015-04-01 00:17:26,0.12,3.96,0.00,24.43,28.22,31.15,4.77,27.26,1014.77,2025.98,2111.72,2362.57,2544.45,349.93,345.37,33.69,0000 0000 0000 0000 000000
2015-04-01 00:22:27,0.05,3.96,0.00,24.41,28.22,31.16,4.76,27.33,1015.04,2025.98,2111.01,2362.01,2543.97,350.04,345.38,33.72,0000 0000 0000 0000 000000
2015-04-01 00:27:28,0.17,3.96,0.00,24.42,28.22,31.14,4.77,27.39,1015.15,2025.98,2110.01,2361.30,2543.13,350.02,345.85,33.75,0000 0000 0000 0000 000000
2015-04-01 00:32:29,0.10,3.97,0.00,24.41,28.22,31.17,4.80,27.23,1015.15,2025.98,2109.02,2360.83,2542.18,350.10,345.75,33.77,0000 0000 0000 0000 000000
2015-04-01 00:37:31,0.15,3.97,0.00,24.43,28.22,31.20,4.70,27.21,1015.16,2025.96,2107.93,2359.99,2541.52,349.49,344.84,33.80,0000 0000 0000 0000 000000
2015-04-01 00:42:32,0.20,3.98,0.00,24.47,28.22,31.22,4.75,27.23,1015.18,2025.97,2106.53,2358.99,2540.40,350.26,345.61,33.83,0000 0000 0000 0000 000000
2015-04-01 00:47:33,0.19,3.98,0.00,24.73,28.22,31.24,4.79,27.32,1015.37,2025.97,2105.02,2357.99,2539.28,350.33,345.50,33.86,0000 0000 0000 0000 000000
2015-04-01 00:52:34,0.23,3.99,0.00,24.87,28.24,31.21,4.69,27.20,1015.62,2025.97,2103.41,2356.84,2538.08,349.85,345.01,33.89,0000 0000 0000 0000 000000
2015-04-01 00:57:35,0.20,4.00,0.00,24.82,28.25,31.27,4.75,27.26,1015.64,2025.95,2101.83,2355.84,2536.87,350.15,345.37,33.92,0000 0000 0000 0000 000000
2015-04-01 01:02:36,0.32,4.00,0.00,24.75,28.25,31.26,4.79,27.20,1015.64,2025.97,2099.69,2354.39,2535.33,349.89,345.27,33.95,0000 0000 0000 0000 000000
2015-04-01 01:07:38,0.28,4.01,0.00,24.54,28.25,31.24,4.70,27.23,1015.65,2025.97,2097.52,2352.96,2533.65,349.69,345.51,33.98,0000 0000 0000 0000 000000
2015-04-01 01:12:39,0.13,4.02,0.00,24.46,28.25,31.22,4.78,27.33,1015.68,2025.98,2096.41,2352.11,2532.80,350.17,345.91,34.01,0000 0000 0000 0000 000000
2015-04-01 01:17:40,0.13,4.02,0.00,24.40,28.24,31.20,4.71,27.42,1015.83,2025.95,2095.40,2351.56,2532.03,350.15,345.93,34.04,0000 0000 0000 0000 000000
2015-04-01 01:22:41,0.10,4.03,0.00,24.33,28.23,31.20,4.74,27.41,1015.93,2025.94,2094.46,2351.01,2531.35,349.86,345.77,34.07,0000 0000 0000 0000 000000
2015-04-01 01:27:42,0.14,4.03,0.00,24.31,28.22,31.20,4.70,27.35,1016.03,2025.98,2093.67,2350.34,2530.79,349.65,345.40,34.10,0000 0000 0000 0000 000000
2015-04-01 01:32:44,0.10,4.03,0.00,24.29,28.22,31.23,4.80,27.43,1016.09,2025.96,2092.69,2349.82,2530.02,350.35,346.25,34.13,0000 0000 0000 0000 000000
2015-04-01 01:37:45,0.12,4.04,0.00,24.29,28.22,31.27,4.82,27.38,1016.13,2025.94,2091.87,2349.07,2529.31,350.04,346.07,34.16,0000 0000 0000 0000 000000
2015-04-01 01:42:47,0.08,4.04,0.00,24.33,28.23,31.29,4.76,27.38,1016.13,2025.97,2091.05,2348.78,2528.95,349.50,345.38,34.18,0000 0000 0000 0000 000000
2015-04-01 01:47:49,0.12,4.04,0.00,24.70,28.25,31.29,4.77,27.33,1016.14,2025.95,2090.32,2348.07,2528.24,350.03,345.62,34.21,0000 0000 0000 0000 000000
2015-04-01 01:52:50,0.04,4.04,0.00,24.52,28.25,31.27,4.74,27.40,1016.16,2025.96,2089.71,2347.92,2527.95,349.96,345.72,34.24,0000 0000 0000 0000 000000
2015-04-01 01:57:51,0.13,4.05,0.00,24.71,28.25,31.30,4.78,27.23,1016.46,2025.90,2088.91,2347.10,2527.11,350.45,346.06,34.27,0000 0000 0000 0000 000000
2015-04-01 02:02:53,0.08,4.05,0.00,24.72,28.25,31.26,4.83,27.27,1016.60,2025.92,2088.07,2346.87,2526.52,350.38,345.74,34.30,0000 0000 0000 0000 000000
2015-04-01 02:07:54,0.13,4.05,0.00,24.80,28.25,31.26,4.74,27.34,1016.62,2025.94,2087.19,2346.09,2525.97,350.00,345.60,34.33,0000 0000 0000 0000 000000
2015-04-01 02:12:55,0.10,4.06,0.00,24.86,28.25,31.27,4.77,27.39,1016.62,2025.97,2086.54,2345.82,2525.19,350.24,345.67,34.36,0000 0000 0000 0000 000000
2015-04-01 02:17:57,0.19,4.06,0.00,24.90,28.25,31.24,4.72,27.31,1016.63,2025.95,2085.23,2344.81,2524.35,349.80,345.17,34.39,0000 0000 0000 0000 000000
2015-04-01 02:22:58,0.14,4.07,0.00,24.90,28.25,31.24,4.80,27.43,1016.65,2025.95,2083.97,2344.00,2523.26,350.60,346.07,34.42,0000 0000 0000 0000 000000
2015-04-01 02:27:59,0.17,4.07,0.00,24.92,28.25,31.22,4.75,27.48,1016.94,2025.96,2082.88,2343.22,2522.53,350.05,345.66,34.45,0000 0000 0000 0000 000000
2015-04-01 02:33:00,0.19,4.08,0.00,24.89,28.25,31.18,4.78,27.34,1017.09,2025.97,2081.54,2342.41,2521.51,350.24,345.88,34.48,0000 0000 0000 0000 000000
2015-04-01 02:38:02,0.17,4.08,0.00,24.91,28.23,31.15,4.71,27.34,1017.10,2025.95,2080.22,2341.51,2520.51,349.40,345.08,34.51,0000 0000 0000 0000 000000
2015-04-01 02:43:03,0.19,4.09,0.00,24.91,28.22,31.08,4.77,27.39,1017.10,2025.98,2078.77,2340.62,2519.53,349.66,345.17,34.54,0000 0000 0000 0000 000000
2015-04-01 02:48:05,0.19,4.09,0.00,24.88,28.22,31.09,4.82,27.46,1017.12,2025.96,2077.35,2339.64,2518.42,350.31,345.94,34.57,0000 0000 0000 0000 000000
2015-04-01 02:53:06,0.21,4.10,0.00,24.88,28.20,31.07,4.71,27.37,1017.16,2025.96,2075.68,2338.62,2517.30,349.48,345.17,34.59,0000 0000 0000 0000 000000
2015-04-01 02:58:07,0.16,4.11,0.00,24.89,28.20,31.04,4.82,27.43,1017.33,2025.95,2074.46,2337.74,2516.31,350.54,346.02,34.62,0000 0000 0000 0000 000000
2015-04-01 03:03:08,0.19,4.11,0.00,24.89,28.19,31.03,4.73,27.45,1017.50,2025.99,2072.85,2336.83,2515.19,350.02,345.43,34.65,0000 0000 0000 0000 000000
2015-04-01 03:08:09,0.19,4.12,0.00,24.94,28.17,30.97,4.73,27.42,1017.55,2025.99,2071.49,2335.91,2514.23,349.57,345.32,34.68,0000 0000 0000 0000 000000
2015-04-01 03:13:10,0.27,4.12,0.00,24.90,28.17,30.98,4.72,27.48,1017.59,2025.99,2069.67,2334.69,2512.93,349.85,345.69,34.71,0000 0000 0000 0000 000000
2015-04-01 03:18:11,0.30,4.13,0.00,24.87,28.17,30.98,4.81,27.48,1017.59,2025.99,2067.51,2333.21,2511.33,350.56,346.36,34.74,0000 0000 0000 0000 000000
2015-04-01 03:23:13,0.23,4.14,0.00,24.83,28.15,30.99,4.76,27.55,1017.60,2025.99,2065.58,2332.02,2509.95,349.85,345.98,34.77,0000 0000 0000 0000 000000
2015-04-01 03:28:14,0.28,4.15,0.00,24.93,28.15,30.92,4.77,27.51,1017.59,2025.99,2063.84,2330.83,2508.63,350.29,346.04,34.80,0000 0000 0000 0000 000000
2015-04-01 03:33:15,0.22,4.16,0.00,24.96,28.15,30.90,4.75,27.57,1017.63,2025.99,2062.12,2329.67,2507.39,350.16,345.90,34.83,0000 0000 0000 0000 000000
2015-04-01 03:38:17,0.24,4.16,0.00,24.94,28.15,30.95,4.78,27.43,1017.72,2025.99,2060.40,2328.54,2506.14,350.04,345.89,34.86,0000 0000 0000 0000 000000
2015-04-01 03:43:18,0.19,4.17,0.00,24.90,28.13,30.97,4.77,27.32,1017.98,2025.99,2058.84,2327.62,2504.98,349.61,345.42,34.89,0000 0000 0000 0000 000000
2015-04-01 03:48:20,0.20,4.17,0.00,24.95,28.12,30.93,4.79,27.56,1018.07,2025.99,2057.40,2326.62,2503.93,350.55,346.44,34.92,0000 0000 0000 0000 000000
2015-04-01 03:53:22,0.18,4.18,0.00,24.98,28.12,30.94,4.82,27.42,1018.08,2025.99,2055.99,2325.72,2502.91,350.26,346.09,34.95,0000 0000 0000 0000 000000
2015-04-01 03:58:23,0.11,3.76,0.00,24.92,28.11,30.93,4.19,23.85,1018.08,2026.39,2247.33,2457.41,2649.12,309.65,304.35,0.00,0000 0000 0000 0000 000002
2015-04-01 04:03:24,0.04,0.00,0.00,24.95,28.11,30.93,4.76,26.94,1018.08,2029.03,3492.65,3316.98,3604.02,349.75,345.65,0.01,0000 0000 0000 0000 000000
2015-04-01 04:08:25,0.04,0.00,0.00,24.89,28.10,30.93,4.73,27.07,1018.09,2029.02,3490.21,3316.03,3602.55,349.84,345.81,0.04,0000 0000 0000 0000 000000
2015-04-01 04:13:27,0.06,0.00,0.00,24.96,28.10,30.89,4.77,27.14,1018.10,2029.01,3488.59,3315.15,3601.34,350.39,346.45,0.07,0000 0000 0000 0000 000000
2015-04-01 04:18:28,0.07,0.00,0.00,25.00,28.10,30.90,4.75,27.23,1018.11,2029.01,3487.24,3314.37,3600.24,350.06,345.99,0.10,0000 0000 0000 0000 000000
2015-04-01 04:23:29,0.09,0.01,0.00,25.01,28.08,30.90,4.76,27.08,1018.23,2029.01,3485.49,3313.41,3598.92,349.72,345.53,0.12,0000 0000 0000 0000 000000
2015-04-01 04:28:30,0.11,0.01,0.00,24.94,28.07,30.90,4.80,27.12,1018.44,2029.03,3483.78,3312.42,3597.69,350.50,346.55,0.15,0000 0000 0000 0000 000000
2015-04-01 04:33:31,0.11,0.01,0.00,25.00,28.07,30.86,4.75,27.13,1018.56,2029.04,3482.41,3311.54,3596.50,350.07,346.09,0.18,0000 0000 0000 0000 000000
2015-04-01 04:38:33,0.06,0.02,0.00,25.01,28.07,30.87,4.84,27.29,1018.57,2029.04,3481.11,3310.90,3595.54,350.07,346.11,0.21,0000 0000 0000 0000 000000
2015-04-01 04:43:34,0.09,0.02,0.00,25.02,28.05,30.87,4.75,27.11,1018.57,2029.05,3479.88,3310.07,3594.61,349.75,345.72,0.24,0000 0000 0000 0000 000000
2015-04-01 04:48:35,0.12,0.02,0.00,24.97,28.05,30.82,4.68,27.13,1018.58,2029.19,3478.54,3309.31,3593.64,349.25,345.40,0.27,0000 0000 0000 0000 000000
2015-04-01 04:53:36,0.11,0.03,0.00,25.01,28.05,30.83,4.72,27.13,1018.60,2029.20,3476.72,3308.16,3592.30,349.69,345.83,0.30,0000 0000 0000 0000 000000
2015-04-01 04:58:37,0.16,0.03,0.00,25.01,28.05,30.80,4.75,27.14,1018.80,2029.21,3475.00,3307.11,3590.86,349.98,345.96,0.33,0000 0000 0000 0000 000000
2015-04-01 05:03:39,0.27,0.04,0.00,25.05,28.04,30.82,4.74,27.23,1018.88,2029.20,3471.49,3304.66,3588.15,350.26,346.32,0.36,0000 0000 0000 0000 000000
2015-04-01 05:08:40,0.32,0.05,0.00,24.99,28.03,30.82,4.77,27.37,1018.95,2029.25,3467.59,3301.97,3585.17,350.28,346.44,0.39,0000 0000 0000 0000 000000
2015-04-01 05:13:41,0.24,0.05,0.00,25.06,28.02,30.84,4.79,27.22,1018.99,2029.38,3464.15,3299.68,3582.77,350.19,346.40,0.42,0000 0000 0000 0000 000000
2015-04-01 05:18:42,0.17,0.06,0.00,25.00,28.02,30.81,4.75,27.10,1019.03,2029.58,3461.58,3297.99,3580.92,349.88,345.99,0.45,0000 0000 0000 0000 000000
2015-04-01 05:23:43,0.19,0.07,0.00,25.01,28.02,30.79,4.72,27.22,1019.06,2029.44,3458.64,3296.18,3578.80,350.01,346.18,0.48,0000 0000 0000 0000 000000
2015-04-01 05:28:45,0.21,0.07,0.00,24.98,28.01,30.76,4.70,27.18,1019.06,2029.59,3456.32,3294.57,3577.08,349.84,346.05,0.50,0000 0000 0000 0000 000000
2015-04-01 05:33:46,0.19,0.08,0.00,25.03,28.00,30.79,4.74,27.22,1019.07,2029.54,3453.59,3292.65,3574.86,350.09,346.36,0.53,0000 0000 0000 0000 000000
2015-04-01 05:38:47,0.27,0.08,0.00,24.98,28.00,30.79,4.70,27.24,1019.09,2029.40,3450.14,3290.21,3572.19,350.10,346.35,0.56,0000 0000 0000 0000 000000
2015-04-01 05:43:49,0.29,0.09,0.00,25.03,28.00,30.80,4.79,27.15,1019.10,2029.72,3446.81,3287.99,3569.65,350.20,346.37,0.59,0000 0000 0000 0000 000000
2015-04-01 05:48:50,0.22,0.10,0.00,24.98,28.00,30.79,4.76,27.15,1019.21,2029.88,3443.82,3286.01,3567.52,349.77,346.03,0.62,0000 0000 0000 0000 000000
2015-04-01 05:53:52,0.24,0.11,0.00,25.04,27.98,30.78,4.70,27.10,1019.26,2029.83,3440.30,3283.59,3564.79,349.65,345.99,0.65,0000 0000 0000 0000 000000
2015-04-01 05:58:53,0.23,0.11,0.00,25.03,27.97,30.78,4.76,27.12,1019.36,2029.92,3437.27,3281.55,3562.46,350.24,346.37,0.68,0000 0000 0000 0000 000000
2015-04-01 06:03:54,0.19,0.12,0.00,25.03,27.97,30.76,4.68,27.26,1019.46,2029.88,3434.55,3279.73,3560.38,349.70,345.99,0.71,0000 0000 0000 0000 000000
2015-04-01 06:08:55,0.20,0.13,0.00,25.02,27.97,30.72,4.69,27.44,1019.55,2029.89,3431.75,3277.89,3558.30,349.98,346.25,0.74,0000 0000 0000 0000 000000
2015-04-01 06:13:56,0.17,0.13,0.00,25.06,27.96,30.70,4.79,27.38,1019.55,2029.87,3429.28,3276.25,3556.44,349.76,346.39,0.77,0000 0000 0000 0000 000000
2015-04-01 06:18:58,0.27,0.14,0.00,25.04,27.95,30.67,4.78,27.21,1019.55,2029.84,3425.70,3273.76,3553.69,350.21,346.83,0.80,0000 0000 0000 0000 000000
2015-04-01 06:23:59,0.24,0.15,0.00,25.06,27.95,30.69,4.73,27.27,1019.59,2029.93,3422.63,3271.71,3551.45,350.22,346.42,0.83,0000 0000 0000 0000 000000
2015-04-01 06:29:01,0.25,0.15,0.00,25.03,27.95,30.70,4.79,27.38,1019.64,2029.97,3419.41,3269.58,3549.05,350.82,347.25,0.86,0000 0000 0000 0000 000000
2015-04-01 06:34:02,0.21,0.16,0.00,25.01,27.94,30.66,4.68,27.24,1019.90,2029.97,3416.32,3267.47,3546.76,349.53,345.89,0.89,0000 0000 0000 0000 000000
2015-04-01 06:39:03,0.27,0.17,0.00,25.05,27.93,30.65,4.76,27.09,1020.02,2029.95,3412.83,3265.18,3544.14,349.88,346.32,0.92,0000 0000 0000 0000 000000
2015-04-01 06:44:05,0.24,0.17,0.00,25.06,27.92,30.63,4.70,27.23,1020.03,2029.97,3409.41,3262.96,3541.55,349.67,346.06,0.94,0000 0000 0000 0000 000000
2015-04-01 06:49:06,0.29,0.18,0.00,25.09,27.92,30.60,4.75,27.18,1020.03,2029.96,3405.66,3260.49,3538.78,350.16,346.45,0.97,0000 0000 0000 0000 000000
2015-04-01 06:54:08,0.26,0.19,0.00,25.06,27.92,30.64,4.72,27.16,1020.05,2029.97,3402.05,3258.09,3536.15,349.50,345.99,1.00,0000 0000 0000 0000 000000
2015-04-01 06:59:09,0.22,0.20,0.00,25.10,27.92,30.64,4.74,27.09,1020.05,2029.97,3398.90,3256.00,3533.74,349.70,346.11,1.03,0000 0000 0000 0000 000000
2015-04-01 07:04:10,0.24,0.21,0.00,25.03,27.90,30.63,4.67,27.15,1020.21,2029.99,3395.83,3253.85,3531.46,349.94,346.47,1.06,0000 0000 0000 0000 000000
2015-04-01 07:09:12,0.29,0.21,0.00,25.07,27.90,30.61,4.74,27.18,1020.47,2029.98,3392.08,3251.36,3528.69,349.90,346.57,1.09,0000 0000 0000 0000 000000
2015-04-01 07:14:13,0.27,0.22,0.00,25.07,27.90,30.63,4.81,27.52,1020.52,2029.97,3388.42,3248.79,3525.86,350.42,346.95,1.12,0000 0000 0000 0000 000000
2015-04-01 07:19:15,0.23,0.23,0.00,25.05,27.90,30.58,4.75,27.22,1020.52,2029.98,3385.14,3246.54,3523.38,350.49,347.13,1.15,0000 0000 0000 0000 000000
2015-04-01 07:24:16,0.21,0.24,0.00,25.09,27.90,30.59,4.70,27.27,1020.54,2029.98,3382.32,3244.64,3521.26,349.85,346.52,1.18,0000 0000 0000 0000 000000
2015-04-01 07:29:17,0.21,0.24,0.00,25.06,27.88,30.62,4.85,27.43,1020.65,2029.98,3379.37,3242.61,3519.17,350.41,347.11,1.21,0000 0000 0000 0000 000000
2015-04-01 07:34:19,0.23,0.25,0.00,25.09,27.87,30.66,4.80,27.26,1020.89,2029.99,3376.27,3240.57,3516.90,349.83,346.53,1.24,0000 0000 0000 0000 000000
2015-04-01 07:39:20,0.24,0.25,0.00,25.00,27.87,30.66,4.80,27.35,1020.98,2029.98,3373.21,3238.49,3514.64,350.20,346.92,1.27,0000 0000 0000 0000 000000
2015-04-01 07:44:21,0.30,0.26,0.00,25.02,27.87,30.61,4.74,27.34,1021.01,2029.99,3369.29,3235.77,3511.64,349.79,346.51,1.30,0000 0000 0000 0000 000000
2015-04-01 07:49:23,0.25,0.27,0.00,25.05,27.87,30.57,4.79,27.45,1021.01,2029.98,3365.79,3233.34,3509.04,350.33,347.14,1.33,0000 0000 0000 0000 000000
2015-04-01 07:54:24,0.21,0.28,0.00,25.08,27.85,30.54,4.80,27.32,1021.01,2029.98,3362.70,3231.28,3506.70,350.22,346.97,1.35,0000 0000 0000 0000 000000
2015-04-01 07:59:25,0.17,0.28,0.00,25.04,27.85,30.55,4.74,27.34,1021.02,2029.99,3360.49,3229.78,3505.07,350.25,347.07,1.38,0000 0000 0000 0000 000000
2015-04-01 08:04:26,0.32,0.29,0.00,25.04,27.85,30.53,4.66,27.36,1021.03,2029.99,3356.70,3227.32,3502.37,349.39,346.23,1.41,0000 0000 0000 0000 000000
2015-04-01 08:09:28,0.43,0.30,0.00,25.02,27.85,30.55,4.76,27.13,1021.10,2029.99,3351.02,3223.58,3498.31,350.18,347.00,1.44,0000 0000 0000 0000 000000
2015-04-01 08:14:29,0.46,0.32,0.00,25.04,27.85,30.53,4.76,27.38,1021.32,2029.99,3344.65,3219.27,3493.70,350.21,347.12,1.47,0000 0000 0000 0000 000000
2015-04-01 08:19:30,0.39,0.33,0.00,25.02,27.83,30.57,4.69,27.32,1021.47,2029.99,3339.31,3215.68,3489.85,349.55,346.56,1.50,0000 0000 0000 0000 000000
2015-04-01 08:24:31,0.35,0.34,0.00,24.97,27.82,30.51,4.76,27.27,1021.50,2029.99,3334.50,3212.39,3486.24,350.21,347.19,1.53,0000 0000 0000 0000 000000
2015-04-01 08:29:33,0.26,0.35,0.00,24.97,27.82,30.48,4.79,27.38,1021.50,2029.99,3330.67,3209.79,3483.43,349.81,347.04,1.56,0000 0000 0000 0000 000000
2015-04-01 08:34:34,0.25,0.36,0.00,24.96,27.82,30.49,4.69,27.37,1021.51,2029.99,3327.33,3207.51,3480.94,349.88,347.16,1.59,0000 0000 0000 0000 000000
2015-04-01 08:39:36,0.30,0.36,0.00,24.95,27.82,30.51,4.76,27.34,1021.51,2029.99,3323.75,3205.06,3478.21,349.83,346.85,1.62,0000 0000 0000 0000 000000
2015-04-01 08:44:37,0.27,0.37,0.00,24.94,27.82,30.53,4.70,27.39,1021.57,2029.99,3320.02,3202.47,3475.41,349.80,346.77,1.65,0000 0000 0000 0000 000000
2015-04-01 08:49:38,0.23,0.38,0.00,24.93,27.82,30.50,4.65,27.30,1021.74,2029.99,3316.83,3200.34,3473.07,349.68,346.88,1.68,0000 0000 0000 0000 000000
2015-04-01 08:54:39,0.26,0.39,0.00,24.90,27.82,30.51,4.70,27.35,1021.92,2029.99,3313.52,3198.09,3470.49,349.79,347.15,1.71,0000 0000 0000 0000 000000
2015-04-01 08:59:41,0.33,0.40,0.00,24.94,27.82,30.52,4.74,27.48,1021.98,2029.99,3309.53,3195.32,3467.48,349.85,346.99,1.74,0000 0000 0000 0000 000000
2015-04-01 09:04:42,0.34,0.41,0.00,24.93,27.82,30.54,4.80,27.38,1021.99,2029.99,3304.95,3192.19,3464.05,349.82,347.12,1.76,0000 0000 0000 0000 000000
2015-04-01 09:09:44,0.22,0.41,0.00,24.88,27.82,30.53,4.67,27.41,1021.99,2029.99,3301.64,3189.86,3461.56,350.00,347.34,1.79,0000 0000 0000 0000 000000
2015-04-01 09:14:45,0.10,0.42,0.00,24.88,27.82,30.54,4.73,27.49,1021.99,2029.99,3299.94,3188.83,3460.28,349.93,347.31,1.82,0000 0000 0000 0000 000000
2015-04-01 09:19:46,0.09,0.42,0.00,24.88,27.82,30.55,4.80,27.42,1022.03,2029.99,3298.57,3187.99,3459.32,350.62,347.91,1.85,0000 0000 0000 0000 000000
2015-04-01 09:24:47,0.09,0.42,0.00,24.92,27.82,30.55,4.72,27.43,1022.24,2029.99,3297.41,3187.11,3458.30,350.16,347.43,1.88,0000 0000 0000 0000 000000
2015-04-01 09:29:48,0.10,0.43,0.00,24.87,27.82,30.53,4.72,27.54,1022.45,2029.99,3296.06,3186.20,3457.25,349.96,347.58,1.91,0000 0000 0000 0000 000000
2015-04-01 09:34:49,0.12,0.43,0.00,24.84,27.82,30.54,4.86,27.55,1022.48,2029.99,3294.51,3185.25,3456.07,350.58,348.01,1.94,0000 0000 0000 0000 000000
2015-04-01 09:39:51,0.10,0.43,0.00,24.84,27.83,30.58,4.81,27.52,1022.49,2029.99,3293.02,3184.22,3454.94,350.26,347.75,1.97,0000 0000 0000 0000 000000
2015-04-01 09:44:52,0.09,0.44,0.00,24.85,27.84,30.59,4.75,27.42,1022.49,2029.99,3291.77,3183.48,3454.01,349.46,347.11,2.00,0000 0000 0000 0000 000000
2015-04-01 09:49:54,0.08,0.44,0.00,24.87,27.85,30.58,4.76,27.47,1022.55,2029.99,3290.69,3182.76,3453.11,350.45,348.05,2.03,0000 0000 0000 0000 000000
2015-04-01 09:54:55,0.09,0.44,0.00,24.88,27.85,30.60,4.79,27.47,1022.77,2029.98,3289.33,3181.82,3452.10,350.30,347.79,2.06,0000 0000 0000 0000 000000
2015-04-01 09:59:56,0.09,0.45,0.00,24.84,27.86,30.65,4.76,27.22,1022.91,2029.98,3288.17,3180.94,3450.98,349.73,347.47,2.09,0000 0000 0000 0000 000000
2015-04-01 10:04:58,0.10,0.45,0.00,24.89,27.87,30.63,4.75,27.38,1022.96,2029.97,3286.80,3180.04,3449.92,349.88,347.80,2.12,0000 0000 0000 0000 000000
2015-04-01 10:09:59,0.09,0.45,0.00,24.90,27.88,30.66,4.86,27.32,1022.96,2029.96,3285.62,3179.16,3449.00,350.55,348.20,2.15,0000 0000 0000 0000 000000
2015-04-01 10:15:00,0.08,0.45,0.00,24.87,27.90,30.66,4.77,27.48,1022.97,2029.91,3284.50,3178.47,3448.09,349.97,347.57,2.17,0000 0000 0000 0000 000000
2015-04-01 10:20:01,0.08,0.46,0.00,24.88,27.90,30.69,4.81,27.48,1022.98,2029.91,3283.38,3177.77,3447.12,350.52,347.92,2.20,0000 0000 0000 0000 000000
2015-04-01 10:25:03,0.02,0.46,0.00,24.77,27.92,30.73,4.73,27.29,1023.00,2029.63,3282.22,3176.97,3446.18,350.20,348.02,2.23,0000 0000 0000 0000 000000
2015-04-01 10:30:04,0.07,0.46,0.00,24.78,27.92,30.76,4.81,27.39,1023.13,2029.48,3281.09,3176.12,3445.22,350.32,348.14,2.26,0000 0000 0000 0000 000000
2015-04-01 10:35:05,0.08,0.46,0.00,24.81,27.95,30.77,4.73,27.37,1023.12,2029.40,3280.05,3175.48,3444.40,349.64,347.50,2.29,0000 0000 0000 0000 000000
2015-04-01 10:40:06,0.02,0.46,0.00,24.91,27.95,30.75,4.78,27.39,1023.22,2029.14,3279.00,3174.87,3443.58,350.04,347.78,2.32,0000 0000 0000 0000 000000
2015-04-01 10:45:07,0.08,0.47,0.00,24.85,27.97,30.80,4.80,27.51,1023.36,2029.06,3277.92,3174.06,3442.74,349.75,347.71,2.35,0000 0000 0000 0000 000000
2015-04-01 10:50:09,0.08,0.47,0.00,24.86,27.97,30.86,4.83,27.45,1023.44,2029.05,3276.90,3173.34,3441.93,350.62,348.35,2.38,0000 0000 0000 0000 000000
2015-04-01 10:55:10,0.06,0.47,0.00,24.79,27.99,30.90,4.72,27.48,1023.45,2029.02,3275.88,3172.83,3441.08,349.90,347.82,2.41,0000 0000 0000 0000 000000
2015-04-01 11:00:12,0.07,0.47,0.00,24.73,28.00,30.91,4.81,27.48,1023.45,2029.02,3275.02,3172.10,3440.35,350.25,348.28,2.44,0000 0000 0000 0000 000000
2015-04-01 11:05:13,0.07,0.47,0.00,24.74,28.00,30.93,4.78,27.53,1023.45,2029.01,3274.01,3171.62,3439.69,349.98,348.01,2.47,0000 0000 0000 0000 000000
2015-04-01 11:10:14,0.06,0.48,0.00,24.59,28.02,30.97,4.79,27.63,1023.45,2029.01,3272.97,3170.96,3438.82,349.74,347.79,2.50,0000 0000 0000 0000 000000
2015-04-01 11:15:16,0.08,0.48,0.00,24.45,28.02,31.03,4.81,27.48,1023.47,2029.00,3271.97,3170.14,3438.00,350.26,348.60,2.53,0000 0000 0000 0000 000000
2015-04-01 11:20:17,0.09,0.48,0.00,24.32,28.02,31.07,4.81,27.56,1023.50,2029.00,3270.91,3169.56,3437.16,350.25,348.96,2.56,0000 0000 0000 0000 000000
2015-04-01 11:25:18,0.06,0.48,0.00,24.26,28.04,31.11,4.84,27.33,1023.60,2029.00,3269.90,3168.97,3436.36,350.06,348.93,2.58,0000 0000 0000 0000 000000
2015-04-01 11:30:19,0.08,0.49,0.00,24.22,28.05,31.12,4.85,27.50,1023.81,2028.99,3268.94,3168.22,3435.69,349.83,348.58,2.61,0000 0000 0000 0000 000000
2015-04-01 11:35:20,0.06,0.49,0.00,24.11,28.05,31.14,4.82,27.45,1023.88,2028.99,3267.95,3167.74,3434.84,350.36,349.22,2.64,0000 0000 0000 0000 000000
2015-04-01 11:40:22,0.06,0.49,0.00,24.15,28.06,31.17,4.84,27.49,1023.90,2028.98,3267.02,3167.03,3434.04,350.43,349.26,2.67,0000 0000 0000 0000 000000
2015-04-01 11:45:23,0.08,0.49,0.00,24.11,28.07,31.20,4.88,27.53,1023.93,2028.95,3266.07,3166.34,3433.25,350.36,349.17,2.70,0000 0000 0000 0000 000000
2015-04-01 11:50:24,0.06,0.49,0.00,24.10,28.07,31.22,4.73,27.36,1023.93,2028.96,3265.10,3165.93,3432.64,349.52,348.30,2.73,0000 0000 0000 0000 000000
2015-04-01 11:55:26,0.07,0.50,0.00,24.13,28.09,31.25,4.84,27.40,1023.93,2028.93,3264.10,3165.09,3431.86,350.12,348.97,2.76,0000 0000 0000 0000 000000
2015-04-01 12:00:26,0.06,0.50,0.00,24.03,28.10,31.26,4.78,27.36,1023.94,2028.87,3263.27,3164.54,3431.02,349.51,348.59,2.79,0000 0000 0000 0000 000000
2015-04-01 12:05:28,0.05,0.50,0.00,24.05,28.12,31.31,4.81,27.30,1023.94,2028.74,3262.24,3163.98,3430.14,350.32,349.27,2.82,0000 0000 0000 0000 000000
2015-04-01 12:10:29,0.07,0.50,0.00,24.01,28.13,31.32,4.78,27.30,1023.94,2028.68,3261.31,3163.17,3429.52,350.08,349.08,2.85,0000 0000 0000 0000 000000
2015-04-01 12:15:30,0.07,0.50,0.00,24.05,28.15,31.34,4.74,27.43,1023.94,2028.59,3260.36,3162.68,3428.79,349.40,348.36,2.88,0000 0000 0000 0000 000000
2015-04-01 12:20:31,0.01,0.51,0.00,24.38,28.16,31.36,4.78,27.23,1023.95,2028.43,3259.38,3161.98,3427.99,349.87,348.58,2.91,0000 0000 0000 0000 000000
2015-04-01 12:25:32,0.06,0.51,0.00,24.39,28.17,31.36,4.72,27.33,1023.98,2028.19,3258.32,3161.17,3427.12,349.72,348.53,2.94,0000 0000 0000 0000 000000
2015-04-01 12:30:33,0.07,0.51,0.00,24.46,28.19,31.31,4.76,27.15,1024.04,2028.05,3257.17,3160.61,3426.23,349.43,347.94,2.97,0000 0000 0000 0000 000000
2015-04-01 12:35:35,0.05,0.51,0.00,24.36,28.20,31.27,4.84,27.26,1024.11,2028.04,3256.23,3160.01,3425.61,350.24,348.89,3.00,0000 0000 0000 0000 000000
2015-04-01 12:40:36,0.08,0.51,0.00,24.17,28.20,31.24,4.82,27.38,1024.29,2028.08,3255.39,3159.42,3424.89,350.14,349.07,3.02,0000 0000 0000 0000 000000
2015-04-01 12:45:37,0.06,0.51,0.00,24.10,28.20,31.19,4.87,27.26,1024.37,2028.04,3254.32,3158.91,3424.08,350.43,349.17,3.05,0000 0000 0000 0000 000000
2015-04-01 12:50:39,0.08,0.52,0.00,23.97,28.19,31.17,4.74,27.35,1024.37,2028.02,3253.32,3158.09,3423.38,349.68,348.89,3.08,0000 0000 0000 0000 000000
2015-04-01 12:55:40,0.08,0.52,0.00,23.96,28.17,31.13,4.82,27.28,1024.37,2028.01,3252.26,3157.48,3422.56,350.24,349.40,3.11,0000 0000 0000 0000 000000
2015-04-01 13:00:41,0.04,0.52,0.00,23.95,28.17,31.12,4.78,27.34,1024.34,2028.03,3251.55,3157.01,3421.97,349.48,348.75,3.14,0000 0000 0000 0000 000000
2015-04-01 13:05:43,0.09,0.52,0.00,23.91,28.17,31.17,4.78,27.38,1024.40,2028.02,3250.50,3156.37,3421.12,349.82,349.04,3.17,0000 0000 0000 0000 000000